Regional Weather Roundup
Issued by NWS

Home | Current Version | Previous Version | Text Only | Print | Product List | Glossary Off
Versions: 1 2 3 4 5 6 7 8 9 10 11 12 13 14 15 16 17 18 19 20 21 22 23 24 25 26 27 28 29 30 31 32 33 34 35 36 37 38 39 40 41 42 43 44 45 46 47 48 49 50

000
ASUS45 KBOU 220807
RWRCO

WEATHER ROUNDUP FOR COLORADO
NATIONAL WEATHER SERVICE DENVER/BOULDER CO
200 AM MDT FRI AUG 22 2014

NOTE: "FAIR" INDICATES FEW OR NO CLOUDS BELOW 12000 FEET WITH NO
SIGNIFICANT WEATHER AND/OR OBSTRUCTIONS TO VISIBILITY.

COZ001>005-013-030-031-220900-
...NORTHWEST COLORADO...

CITY           SKY/WX    TMP DP  RH WIND       PRES   REMARKS
CRAIG          MOCLDY    54  49  83 CALM      30.20F
HAYDEN         CLOUDY    54  45  71 S6        30.22S
MEEKER         CLOUDY    53  47  79 E3        30.21S
MOUNT WERNER   NOT AVBL
STEAMBOAT SPGS MOCLDY    51  47  84 CALM      30.24S
WALDEN         CLOUDY    46  41  81 CALM      30.31F
$$

COZ006>008-011-220900-
...WEST CENTRAL VALLEYS...

CITY           SKY/WX    TMP DP  RH WIND       PRES   REMARKS
GRAND JUNCTION CLOUDY    65  50  58 CALM      30.08S
MONTROSE       CLOUDY    65  48  54 SE5       30.18S
EAGLE          MOCLDY    59  48  67 CALM      30.23S
RIFLE          CLOUDY    63  49  60 CALM      30.14S
DELTA          CLOUDY    71  46  40 E8        30.13S
NUCLA          CLOUDY    66  46  48 E6        30.22S
$$

COZ017>023-064>068-220900-
...SOUTHWEST COLORADO...

CITY           SKY/WX    TMP DP  RH WIND       PRES   REMARKS
DURANGO        CLOUDY    64  43  46 NW6       30.20S
CORTEZ         LGT RAIN  57  56  96 E6        30.25S
PAGOSA SPRINGS CLOUDY    58  40  50 CALM      30.26F
TELLURIDE      NOT AVBL
WOLF CREEK PAS NOT AVBL
$$

COZ009-010-012-014-032>034-037-058>063-220900-
...CENTRAL COLORADO...

CITY           SKY/WX    TMP DP  RH WIND       PRES   REMARKS
ASPEN          CLOUDY    55  41  59 S7        30.29S
BUENA VISTA    MOCLDY    59  41  51 CALM      30.28F
COPPER MTN     CLOUDY    48  34  57 N3        30.56F
BERTHOUD PASS  CLOUDY    39  37  93 MISG      30.61F
COTTONWOOD PAS CLOUDY    61  32  33 W5        30.41F
GUNNISON       CLOUDY    55  43  62 N7        30.32F
KREMMLING      MOCLDY    54  46  76 CALM      30.28F
LEADVILLE      LGT RAIN  45  40  82 E5        30.43S
MONARCH PASS   CLOUDY    46  34  61 NW6       30.65F
SALIDA         CLOUDY    65  39  38 NW3       30.32F
SUNLIGHT       CLOUDY    52  37  58 CALM      30.49F
WILKERSON PASS NOT AVBL
$$

COZ069>075-220900-
...SAN LUIS VALLEY/SANGRE DE CRISTO MOUNTAINS...

CITY           SKY/WX    TMP DP  RH WIND       PRES   REMARKS
ALAMOSA        MOCLDY    53  41  63 E3        30.24F
LA VETA PASS   NOT AVBL
SAGUACHE       CLOUDY    61  37  41 NW14      30.27F
$$

COZ035-036-038>040-220900-
...NORTHERN COLORADO FRONT RANGE...

CITY           SKY/WX    TMP DP  RH WIND       PRES   REMARKS
DENVER INTL AP CLOUDY    64  55  72 SE6       30.15S
DMNS CITY PARK   N/A     67  53  61 E7        30.13F
AURORA         LGT RAIN  64  57  77 S9        30.19S
FRONT RANGE AP NOT AVBL
ERIE MUNI ARPT CLOUDY    64  56  76 W3        30.13F
BOULDER MUN AP CLOUDY    64  52  63 E5        30.14F
CENTENNIAL     LGT RAIN  62  55  77 NE7       30.17F
BROOMFIELD     CLOUDY    64  52  63 S5        30.17F
FORT COLLINS   CLOUDY    63  57  82 CALM      30.14S
LONGMONT       CLOUDY    65  58  76 CALM      30.15S
$$

COZ041-046-047-076>085-087-088-220900-
...PIKES PEAK/PALMER DIVIDE AND SOUTHERN FOOTHILLS...

CITY           SKY/WX    TMP DP  RH WIND       PRES   REMARKS
COLO. SPRINGS  CLOUDY    67  49  52 N12       30.19R
A. F. ACADEMY  MOCLDY    64  47  53 N14G21    30.21F
ELLICOTT       CLOUDY    62  54  74 E9        30.15F THUNDER
FALCON         LGT RAIN  59  52  78 N12       30.24R
FORT CARSON    NOT AVBL
LIMON          MOCLDY    63  51  65 W14       30.14R
MONUMENT HILL  CLOUDY    55  50  82 N8        30.25R
TRINIDAD       PTCLDY    59  46  62 SW10      30.09F
$$

COZ042>045-048>051-090-091-220900-
...NORTHEAST COLORADO...

CITY           SKY/WX    TMP DP  RH WIND       PRES   REMARKS
GREELEY ARPT   CLOUDY    64  54  68 NE3       30.10F
AKRON          CLOUDY    65  57  75 N10       30.09F
BURLINGTON     PTCLDY    69  51  52 NE6       30.04F
WRAY             N/A     71  56  58 NW6       30.03F
STERLING       CLOUDY    68  61  77 NW8       30.07S
HOLYOKE        NOT AVBL
FORT MORGAN    CLOUDY    64  58  82 NW12      30.11F
$$

COZ086-089-092>099-220900-
...SOUTHEAST COLORADO...

CITY           SKY/WX    TMP DP  RH WIND       PRES   REMARKS
PUEBLO         MOCLDY    71  52  50 N16       30.04S
LA JUNTA       PTCLDY    75  51  43 SE3       29.98F
LAMAR          PTCLDY    72  60  66 SE12      29.95F
SPRINGFIELD      N/A     61  53  75 NW3       30.01F
$$


USA.gov is the U.S. government's official web portal to all federal, state and local government web resources and services.